GSAT0202 (PRN E14)

Last updated on June 27, 2019, 3:44 a.m. UTC

1 40129U 14050B   19177.30529081 -.00000095  00000-0  00000+0 0  9993
2 40129  50.6133  14.6525 1665646  88.7084 290.3059  1.85519358 33186
UTC
Height (km)
Latitude
Longitude
Inclination
Orbital Period
UTC large
Height (km)
Speed (km/s)
/
Latitude / Longitude
Inclination (degrees)
Orbital Period (minutes)
Azimuth
Elevation
Range (km)
Doppler Factor
iOS Compass Heading
iOS Angle

Next 30 passes for location: Hong Kong

Rise time Rise Azimuth (degrees) Set time Set Azimuth (degrees) Duration Max altitude (degrees)

No matching passes for this satellites